CAPE
744 717 737 907 811 914 1058 1095 1161 932 808 926 1033 960 750 512 492 330 300 230 237 227 328 308 0 313 351 426 507 566 660 705 713 765 766 764 670 684 694 650 490 450 519 564 658 719 627 676 669 708 916 1022 940 849 957 954 957 855 724 667 566 529 490 477 472 488 522 450 521 185 210 926 1060 735 459 344 268 213 114 505 419 363 424 548 550
681 676 667 670 742 1185 1245 1247 1209 1016 900 998 1114 1117 968 629 417 344 146 0 0 0 0 0 0 288 342 361 364 392 72 52 0 0 0 0 358 777 785 780 594 481 464 515 526 681 744 702 792 887 976 873 726 750 730 968 1002 918 785 677 546 501 559 561 612 590 595 503 598 494 366 657 1036 870 635 404 297 214 140 511 391 475 320 147 453
752 753 741 672 898 1283 1260 1284 1268 1049 1054 1149 1245 1232 1049 735 460 465 366 20 0 0 0 0 0 0 63 211 224 0 0 0 0 0 0 0 0 0 0 410 470 498 588 591 584 928 891 940 918 874 665 645 769 737 764 867 973 982 904 802 714 641 627 640 636 659 640 639 579 389 268 87 118 538 546 388 296 286 195 393 424 440 331 362 328
859 902 847 1172 1373 1330 1248 1324 1365 1132 1111 1224 1336 1339 1220 934 631 551 573 452 6 286 43 0 0 0 0 0 0 0 0 0 0 0 0 0 0 0 0 0 0 0 0 0 39 1040 1051 978 849 586 531 548 629 807 719 734 769 618 635 724 678 724 627 612 603 627 560 562 519 101 262 450 15 39 487 626 976 940 490 599 560 491 297 358 428
837 872 936 1442 1425 1406 1326 1337 1431 1282 1149 1175 1376 1401 1299 1142 798 609 496 264 262 212 0 0 0 0 0 0 0 0 0 0 0 0 0 32 0 0 0 0 0 0 0 0 0 0 711 863 701 522 551 574 811 824 873 779 666 709 673 672 692 529 521 563 631 594 514 490 418 367 105 3 155 704 614 710 697 963 929 1043 978 734 304 315 439
628 801 1170 1467 1440 1382 1337 1341 1438 1404 1323 1206 1342 1465 1401 1234 928 687 505 518 495 380 122 0 0 0 0 0 0 0 0 0 0 0 0 0 0 0 0 0 0 0 0 0 0 0 0 541 602 605 671 693 792 644 595 506 110 607 737 795 810 651 654 549 536 526 522 494 435 443 24 33 618 483 133 186 500 545 817 1116 825 841 562 582 388
1102 1002 1234 1514 1440 1319 1362 1339 1342 1434 1407 1356 1330 1428 1474 1368 1008 768 638 713 520 479 85 0 0 0 0 0 0 0 0 0 0 0 0 0 0 0 0 0 0 0 0 0 0 0 0 0 0 0 0 473 510 528 287 136 563 544 432 523 646 762 644 635 495 517 529 518 498 398 453 479 632 356 131 303 302 484 527 695 624 450 524 665 377
1236 1282 1074 1322 1435 1399 1388 1349 1352 1403 1500 1513 1462 1419 1539 1437 1096 848 823 816 422 265 228 0 0 0 0 0 0 0 0 0 0 0 0 0 0 0 0 0 0 0 0 0 0 0 0 0 0 0 0 0 0 0 0 0 276 483 462 207 373 532 516 538 543 596 409 464 516 416 393 502 676 393 266 39 0 84 265 237 538 688 578 429 504
1182 1267 1236 1147 1339 1313 1404 1386 1315 1471 1590 1623 1633 1534 1552 1488 1172 912 928 846 382 256 203 0 0 0 0 0 0 0 0 0 0 0 0 0 0 0 0 0 0 0 0 0 0 0 0 0 0 0 0 0 0 0 0 0 0 126 103 0 0 92 376 350 386 482 467 455 439 454 339 577 463 164 9 11 1 3 2 124 0 0 168 361 408
906 1068 1136 1159 1212 1242 1437 1413 1354 1370 1748 1687 1791 1726 1624 1554 1137 880 958 878 502 372 240 0 0 0 0 0 0 0 0 0 0 0 0 0 0 0 0 0 0 0 0 0 0 0 0 0 0 0 0 0 0 0 0 0 0 0 0 0 0 0 27 168 62 135 198 191 262 352 312 469 312 2 7 12 10 4 4 3 0 0 0 0 35
827 905 1020 1151 1028 963 1409 1517 1580 1480 1844 1874 1916 1914 1822 1741 1599 889 932 839 586 424 310 212 0 0 0 0 1 0 0 0 0 0 0 0 0 0 0 0 0 0 0 0 0 0 0 0 0 0 0 0 0 0 0 0 0 0 0 0 0 0 0 0 0 0 0 20 48 234 415 308 0 0 0 0 0 0 0 0 0 0 0 0 0
913 852 881 926 916 899 1174 1554 1782 1733 1756 2093 2080 2109 2047 1944 1827 1526 881 810 673 458 301 236 0 0 0 2 10 4 0 0 0 0 0 0 0 0 0 0 0 0 0 0 0 0 0 0 0 0 0 0 0 0 0 0 0 0 0 0 0 0 0 0 0 0 0 0 0 0 0 0 0 0 0 0 0 0 0 0 0 0 0 0 0
824 761 764 843 889 967 1051 1301 1504 1890 1792 1997 2177 2194 2178 2087 1961 1805 1394 731 691 503 377 267 0 0 0 0 4 1 0 0 0 0 0 0 0 0 0 0 0 0 0 0 0 0 0 0 0 0 0 0 0 0 0 0 0 0 0 0 0 0 0 0 0 0 0 0 0 0 0 0 0 0 0 0 0 0 0 0 0 0 0 0 0
870 826 802 784 828 935 941 1044 1351 1600 1966 2024 2150 2210 2228 2154 2009 1907 1679 1056 618 519 471 184 0 0 0 0 0 0 0 0 0 0 0 0 0 0 0 0 0 0 0 0 0 0 0 0 0 0 0 0 0 0 0 0 0 0 0 0 0 0 0 0 0 0 0 0 0 0 0 0 0 0 0 0 0 0 0 0 0 0 0 0 0
976 953 908 963 999 934 858 925 1030 1224 1432 1758 1994 2115 2139 2119 1822 1381 1088 1227 880 598 523 0 0 0 0 0 1 0 0 0 0 0 0 0 0 0 0 0 0 0 0 0 0 0 0 0 0 0 0 0 0 0 0 0 0 0 0 0 0 0 0 0 0 0 0 0 0 0 0 0 0 0 0 0 0 0 0 0 0 0 0 0 0
834 908 910 956 986 1034 1130 964 938 912 958 1107 1207 1352 1650 1798 1260 818 667 643 947 714 496 70 0 0 1 0 0 0 0 0 0 0 0 0 0 0 0 0 0 0 0 0 0 0 0 0 0 0 0 0 0 0 0 0 0 0 0 0 0 0 0 0 0 0 0 0 0 0 0 0 0 0 0 0 0 0 0 0 0 0 0 0 0
497 608 710 753 944 1210 1310 1164 1144 1103 1065 1005 969 1068 1133 1152 1122 909 514 599 692 697 650 438 0 0 3 0 0 0 0 0 0 0 0 0 0 0 0 0 0 0 0 0 0 0 0 0 0 0 0 0 0 0 0 0 0 0 0 0 0 0 0 0 0 0 0 0 0 0 0 0 0 0 0 0 0 0 0 0 0 0 0 0 0
602 645 695 752 910 1138 1404 1497 1398 1242 1130 1044 968 885 841 891 1019 1077 815 543 688 647 526 463 0 0 4 2 14 5 0 0 0 0 0 0 0 0 68 0 0 0 0 0 0 0 0 0 0 0 0 0 0 0 0 0 0 0 0 0 0 0 0 0 0 0 0 0 0 0 0 0 0 0 0 0 0 0 0 0 0 0 0 0 0
635 595 621 736 793 1002 1231 1364 1385 1328 1306 1281 1180 1068 1070 1082 1006 796 666 605 716 696 592 316 0 3 35 10 8 3 0 0 0 0 0 0 0 124 113 150 104 30 0 0 0 0 0 0 0 0 0 0 0 0 0 0 0 0 0 0 0 0 0 0 0 0 0 0 0 0 0 0 0 0 0 0 0 0 0 0 0 0 0 0 0
710 676 623 651 753 840 948 1137 1294 1372 1310 1275 1264 1205 1118 958 919 1005 1007 759 744 718 589 244 138 120 47 22 12 1 0 0 0 0 4 0 0 195 183 213 130 170 163 81 0 0 0 0 0 0 0 0 0 0 0 0 0 0 0 0 0 0 0 0 0 0 0 0 0 0 0 0 0 0 0 0 0 0 0 0 0 0 0 0 0
686 704 676 642 658 699 731 808 924 1032 1094 1159 1181 1154 1094 907 791 797 912 760 777 740 542 450 148 155 88 41 23 0 0 5 1 0 3 323 227 238 280 250 184 199 197 189 139 44 0 0 0 0 0 0 0 0 0 0 0 0 0 0 0 0 0 0 0 0 0 0 0 0 0 0 0 0 0 0 0 0 0 0 0 0 0 0 0
666 693 681 665 669 644 615 631 666 723 834 851 813 798 855 782 705 761 819 781 685 630 524 459 380 102 74 57 35 12 0 0 0 10 3 36 308 300 341 270 242 230 209 212 196 202 196 166 149 171 2 0 0 0 0 0 0 0 0 0 0 0 0 0 0 0 0 0 0 0 0 0 0 0 0 0 0 0 0 0 0 0 0 0 0
659 638 704 697 680 681 678 667 657 611 649 648 652 677 722 735 787 842 887 755 641 620 500 442 428 340 108 52 38 128 38 5 16 21 26 31 33 267 360 273 280 255 256 55 65 172 146 21 22 202 216 182 17 0 0 0 0 0 0 0 0 0 0 0 0 0 0 0 0 0 0 0 0 0 0 0 0 0 0 0 0 0 0 0 0
314 424 529 646 704 691 715 712 687 699 648 634 642 728 833 878 873 862 808 766 577 441 406 262 220 282 343 333 17 38 104 268 44 28 45 22 33 26 344 347 329 330 340 344 350 96 99 89 65 40 230 51 30 0 0 0 0 0 0 0 0 0 0 0 0 0 0 0 0 0 0 0 0 0 0 0 0 0 0 0 0 0 0 0 0
410 440 390 174 443 641 756 726 728 743 673 630 683 725 777 833 821 785 713 691 677 420 344 260 235 419 498 227 19 352 340 326 227 81 117 380 426 461 448 433 417 445 443 421 406 377 367 338 323 310 311 292 266 176 78 0 0 0 0 0 0 0 0 0 0 0 0 0 0 0 0 0 0 0 0 0 0 0 0 0 0 0 0 0 0
290 55 0 0 0 0 557 755 758 680 733 725 728 724 727 725 756 746 610 575 465 315 263 30 290 424 530 591 169 53 222 382 102 352 264 492 413 515 424 545 510 462 407 445 467 422 393 403 374 359 349 355 341 314 288 277 250 216 183 29 0 0 0 0 0 0 0 0 0 0 0 0 0 0 0 0 0 0 0 0 0 0 0 0 0
6 0 0 0 0 0 0 0 0 37 546 725 755 814 816 780 799 719 619 536 474 405 411 408 477 472 384 305 276 118 224 58 70 42 34 106 212 446 652 662 609 590 573 526 385 494 504 517 496 444 414 397 362 348 323 297 272 244 216 209 183 0 0 0 0 0 2 1 0 0 0 0 0 0 0 0 0 0 1 1 0 0 0 0 0
30 40 48 38 21 0 0 0 0 0 0 235 525 618 779 857 693 730 704 640 593 560 502 525 564 512 498 398 402 444 473 448 401 233 149 160 71 276 500 576 564 601 550 426 196 19 346 406 428 357 226 232 249 309 321 316 287 252 235 234 214 199 47 0 0 0 0 0 0 0 0 0 0 0 0 0 0 0 3 4 2 0 0 0 0
12 24 29 30 31 19 2 0 0 0 0 0 0 0 0 0 275 511 670 746 742 662 624 674 638 562 559 555 472 512 538 701 608 636 705 708 611 550 536 517 447 427 419 412 356 275 13 3 0 0 0 0 0 0 1 56 265 260 238 240 230 214 206 165 0 0 0 0 13 0 0 0 0 45 2 0 0 0 1 2 2 0 0 0 0
0 0 0 0 0 0 0 0 0 0 0 0 0 0 0 0 0 0 0 112 189 405 534 596 559 565 536 560 588 703 656 730 687 676 722 740 779 705 619 577 637 650 631 635 667 643 588 524 421 342 142 115 0 123 119 0 5 156 256 255 250 227 224 210 172 90 0 0 114 73 0 9 54 45 10 0 0 0 1 1 1 0 0 0 0
0 0 0 0 0 0 0 0 0 0 0 0 0 0 0 0 0 0 0 0 0 4 59 62 86 22 520 580 561 377 441 453 349 190 16 144 306 360 660 763 768 815 806 767 724 642 631 640 589 535 455 448 466 427 375 350 278 0 216 234 225 272 245 190 190 170 140 137 145 125 104 88 58 28 17 7 2 5 6 2 1 1 0 0 0
12 8 11 12 4 0 0 0 0 0 0 0 0 0 0 0 0 0 0 0 0 0 0 0 0 0 0 0 0 0 0 0 0 0 0 0 0 0 15 354 664 739 704 579 506 442 435 477 512 530 533 541 549 594 598 562 501 440 401 370 343 325 299 240 213 203 181 160 147 125 132 132 110 55 15 8 2 1 1 0 0 2 0 0 0
16 22 22 11 6 9 0 0 0 0 0 0 0 0 0 0 0 0 0 0 0 0 0 0 0 0 0 0 0 0 0 0 0 0 0 0 0 0 0 27 114 160 182 308 310 385 443 486 532 589 610 604 642 641 619 617 627 594 542 479 431 389 314 257 196 180 162 160 156 134 144 134 94 63 14 4 1 1 5 8 3 0 0 0 0
0 0 0 6 13 9 13 3 1 0 0 0 0 0 0 0 0 0 0 0 0 0 0 0 0 0 0 0 0 0 0 0 0 0 0 0 0 0 0 0 0 0 1 19 147 300 447 532 570 636 741 732 690 667 622 605 583 513 463 400 389 371 304 162 0 0 0 191 163 132 110 85 22 11 5 11 2 0 0 3 4 0 0 0 0
1 3 8 56 46 13 12 2 4 0 0 0 0 0 0 0 0 0 0 0 0 0 0 0 0 0 0 0 0 0 0 0 0 0 0 0 0 0 0 0 0 0 0 0 0 0 133 346 482 676 855 804 714 648 565 547 514 439 366 293 283 295 331 351 321 294 0 0 0 4 15 0 4 10 7 2 0 0 0 0 0 0 0 0 0
3 0 7 12 31 20 22 8 8 13 0 0 0 0 0 0 0 0 0 0 0 0 0 0 0 0 0 0 0 0 0 0 0 0 0 0 0 0 0 0 0 0 0 0 0 0 0 40 278 617 814 761 608 508 508 490 426 367 307 237 94 49 191 225 213 41 0 79 0 11 0 0 1 3 2 0 0 0 0 0 0 0 1 1 0
5 0 0 0 2 8 4 1 0 1 0 3 6 1 0 0 0 0 0 2 1 0 0 0 0 0 0 0 0 0 0 0 0 0 0 0 0 0 0 0 0 0 0 0 0 0 0 0 144 444 602 598 561 474 409 328 286 255 208 0 0 0 0 0 0 0 0 0 7 2 6 8 2 2 0 2 0 0 0 0 0 1 2 0 0
9 5 2 2 1 0 0 0 0 0 0 1 2 0 0 0 0 0 5 11 10 3 0 0 0 0 0 0 0 0 0 0 0 0 0 0 0 0 0 0 0 0 0 0 0 0 0 0 72 352 456 519 559 517 466 384 280 228 201 73 0 0 0 0 0 28 32 10 8 4 6 4 3 2 1 2 0 0 1 0 0 0 0 0 0
0 0 0 0 0 0 2 2 0 0 0 0 0 0 0 0 0 0 4 12 10 3 0 0 0 0 0 0 0 0 0 0 0 0 0 0 0 0 0 0 0 0 0 0 0 0 0 0 0 113 332 389 377 339 244 209 200 188 173 172 108 0 0 0 20 20 14 6 5 6 8 6 2 2 0 0 0 1 0 0 0 0 0 0 0
0 0 0 0 0 0 0 0 0 0 0 0 0 0 1 0 0 0 0 0 0 5 3 0 0 0 0 0 0 0 0 0 0 0 0 0 0 0 0 0 0 0 0 0 0 0 0 0 0 8 215 297 264 215 176 174 178 63 7 147 136 0 62 36 8 4 4 7 8 6 6 5 5 0 2 2 2 0 0 0 0 0 0 0 0
8 3 0 0 0 0 0 0 0 0 0 6 9 8 7 6 6 5 6 6 2 2 5 1 0 0 0 0 0 0 0 0 0 0 0 0 0 0 0 0 0 0 0 0 0 0 0 0 0 0 0 181 196 194 182 169 151 5 67 0 55 102 39 0 1 0 2 7 7 2 1 2 2 2 2 0 0 0 0 1 1 0 0 0 0
27 28 18 9 6 1 0 0 0 0 0 0 0 0 0 7 13 14 16 18 18 16 10 1 0 0 0 0 0 0 0 0 0 0 0 0 0 0 0 0 0 0 0 0 0 0 0 0 0 0 0 136 160 163 156 124 111 111 124 130 19 36 0 2 7 3 16 4 0 0 0 1 2 3 0 0 3 6 8 6 5 1 0 0 0
0 4 19 23 15 14 11 9 10 8 2 0 0 0 0 0 0 0 0 0 0 0 0 0 0 0 0 0 0 0 0 0 0 0 0 0 0 0 0 0 0 0 0 0 0 0 0 0 0 0 0 35 92 105 101 99 86 82 54 16 0 0 0 0 8 5 0 0 2 4 3 5 6 6 5 8 7 6 4 0 0 0 0 0 0
0 0 0 0 0 3 8 9 8 9 12 11 8 3 0 0 0 0 0 0 0 0 0 0 0 0 0 0 0 0 0 0 0 0 0 0 0 0 0 0 0 0 0 0 0 0 0 0 0 0 0 0 22 62 79 77 58 32 10 1 0 0 0 0 1 5 2 12 2 5 6 4 5 7 10 9 4 0 0 0 0 0 0 0 0
0 0 0 0 0 0 0 0 1 6 4 4 8 12 11 8 5 2 0 0 0 0 0 0 0 0 0 0 0 0 0 0 0 0 0 0 0 0 0 0 0 0 0 0 0 0 0 0 0 0 0 18 48 53 63 55 26 3 0 0 1 0 0 0 8 9 9 10 8 8 7 9 9 4 1 0 0 0 0 0 0 0 0 0 0
0 0 0 0 0 0 0 0 0 0 4 5 4 4 5 8 4 3 4 4 6 6 6 6 4 0 0 0 0 0 0 0 0 0 0 0 0 0 0 0 0 0 0 0 0 0 0 0 0 0 0 0 14 42 40 25 0 0 0 0 0 0 0 2 1 1 8 2 6 10 10 0 0 0 0 0 0 0 0 0 0 0 0 0 0
0 0 0 0 0 0 0 0 0 0 0 0 2 7 9 13 12 6 6 5 5 6 6 6 8 10 5 1 0 0 0 0 0 0 0 0 0 0 0 0 0 0 0 0 0 0 0 0 0 0 0 0 4 15 12 16 0 0 0 0 0 0 0 0 5 8 13 16 6 0 2 2 0 0 0 0 0 0 0 0 0 0 0 0 0
0 0 0 0 0 0 0 0 0 0 0 0 0 0 1 4 10 10 9 8 6 4 4 4 7 10 10 4 0 0 0 0 0 0 0 0 0 0 0 0 0 0 45 0 0 0 0 0 0 0 0 0 0 6 3 0 0 0 0 0 0 3 14 16 16 11 13 12 10 5 2 1 2 0 0 0 0 0 0 0 0 0 0 0 0
0 0 0 0 0 0 0 0 0 0 0 0 0 0 0 0 0 0 0 0 0 2 4 4 8 11 12 12 13 13 10 3 0 0 0 0 15 8 0 111 153 143 44 26 0 0 0 0 0 0 0 0 0 0 0 0 0 0 0 4 12 18 19 11 10 8 4 4 7 5 7 4 2 0 0 1 2 0 0 0 0 0 0 0 0
0 0 0 0 0 0 0 0 0 0 0 0 0 0 0 0 0 0 0 0 0 0 0 0 0 2 10 18 20 31 29 23 14 2 0 50 68 124 128 113 39 48 42 1 42 92 93 91 80 29 0 0 0 6 0 0 0 2 1 3 7 12 18 15 7 9 11 9 8 4 1 0 1 2 1 0 0 0 0 0 0 0 0 0 0
0 0 0 0 0 0 0 0 0 0 0 0 0 0 0 0 0 0 0 0 0 0 0 0 0 0 5 11 15 26 35 27 19 7 36 55 63 82 111 105 103 133 147 149 138 104 90 77 68 26 0 0 0 0 0 4 5 8 11 15 14 19 15 19 21 14 5 3 3 2 4 3 0 0 0 0 0 0 0 0 0 0 0 0 0
Wind_Speed
16 17 17 15 14 13 11 14 14 17 22 26 27 26 27 25 24 22 17 17 19 20 20 21 nan 21 21 21 21 18 18 16 15 13 13 12 11 9 7 6 6 9 10 10 11 11 12 11 13 14 15 15 15 15 14 14 15 16 16 16 15 15 15 16 15 16 16 15 15 16 16 17 17 17 17 17 18 19 18 19 18 19 19 20 25
17 17 17 15 15 13 12 16 16 22 21 25 27 25 24 23 24 22 19 nan nan nan nan nan nan 19 22 22 22 21 nan nan nan nan nan nan 14 11 9 7 6 6 8 10 11 12 14 14 14 14 15 15 15 15 15 16 17 18 17 18 15 15 15 15 14 15 16 16 16 15 15 13 14 16 16 16 17 19 20 19 18 17 15 15 20
16 16 17 18 18 15 16 19 17 21 21 25 25 25 23 21 21 22 20 nan nan nan nan nan nan nan nan 20 24 nan nan nan nan nan nan nan nan nan nan 11 9 9 7 9 10 12 14 15 15 15 16 16 17 17 17 17 17 18 18 18 17 16 16 15 15 16 15 16 16 18 15 nan 13 15 15 16 18 19 20 19 17 17 15 14 14
21 19 17 18 17 16 17 19 19 20 21 22 23 24 22 21 20 21 20 19 nan 18 nan nan nan nan nan nan nan nan nan nan nan nan nan nan nan nan nan nan nan nan nan nan nan 12 13 15 16 16 16 16 18 19 18 18 19 19 18 17 18 18 17 16 16 16 17 16 16 16 16 16 nan nan 15 15 17 19 19 19 17 17 17 17 16
25 19 15 16 15 14 16 17 20 19 19 20 21 22 20 21 21 21 20 21 22 22 nan nan nan nan nan nan nan nan nan nan nan nan nan nan nan nan nan nan nan nan nan nan nan nan 15 14 14 15 17 17 18 18 18 18 18 17 18 18 17 18 19 18 17 16 15 15 16 18 17 nan 16 16 17 16 17 18 18 18 17 17 18 20 19
27 21 19 18 17 15 15 16 17 16 17 18 19 20 21 21 21 20 20 22 26 26 25 nan nan nan nan nan nan nan nan nan nan nan nan nan nan nan nan nan nan nan nan nan nan nan nan 16 16 17 16 16 17 18 18 19 20 19 18 19 19 19 20 20 18 17 16 15 16 15 nan nan 18 16 19 16 15 16 15 16 16 15 14 16 18
14 18 19 19 17 16 14 14 16 16 15 17 18 20 21 22 20 20 21 22 26 27 nan nan nan nan nan nan nan nan nan nan nan nan nan nan nan nan nan nan nan nan nan nan nan nan nan nan nan nan nan 16 17 19 19 19 20 20 20 21 20 21 22 21 20 19 20 17 17 16 17 18 18 19 19 18 18 16 17 16 16 16 13 14 16
21 20 18 17 18 18 16 14 15 16 16 17 19 20 22 22 21 21 21 23 24 26 27 nan nan nan nan nan nan nan nan nan nan nan nan nan nan nan nan nan nan nan nan nan nan nan nan nan nan nan nan nan nan nan nan nan 22 20 21 21 22 22 22 23 22 20 19 18 19 17 17 19 20 22 21 nan nan nan 16 16 16 15 14 13 15
25 24 21 18 16 14 15 15 14 16 17 18 20 21 22 22 23 23 22 24 23 25 28 nan nan nan nan nan nan nan nan nan nan nan nan nan nan nan nan nan nan nan nan nan nan nan nan nan nan nan nan nan nan nan nan nan nan 22 22 nan nan nan 23 23 23 19 19 19 22 19 20 21 22 23 nan nan nan nan nan 20 nan nan 17 15 16
22 20 17 15 15 15 17 18 16 16 17 19 20 21 22 23 24 25 24 25 26 26 28 nan nan nan nan nan nan nan nan nan nan nan nan nan nan nan nan nan nan nan nan nan nan nan nan nan nan nan nan nan nan nan nan nan nan nan nan nan nan nan nan 25 nan 22 22 22 20 22 21 22 23 nan nan nan nan nan nan nan nan nan nan nan nan
18 14 13 13 11 13 16 19 19 18 18 19 20 21 23 25 26 26 26 27 28 27 28 29 nan nan nan nan nan nan nan nan nan nan nan nan nan nan nan nan nan nan nan nan nan nan nan nan nan nan nan nan nan nan nan nan nan nan nan nan nan nan nan nan nan nan nan nan nan 24 23 21 nan nan nan nan nan nan nan nan nan nan nan nan nan
18 15 14 14 14 15 16 19 20 21 21 20 20 21 23 25 27 28 27 28 28 27 27 31 nan nan nan nan nan nan nan nan nan nan nan nan nan nan nan nan nan nan nan nan nan nan nan nan nan nan nan nan nan nan nan nan nan nan nan nan nan nan nan nan nan nan nan nan nan nan nan nan nan nan nan nan nan nan nan nan nan nan nan nan nan
22 21 18 17 18 19 19 20 20 20 21 22 22 22 23 25 27 29 27 26 28 27 26 31 nan nan nan nan nan nan nan nan nan nan nan nan nan nan nan nan nan nan nan nan nan nan nan nan nan nan nan nan nan nan nan nan nan nan nan nan nan nan nan nan nan nan nan nan nan nan nan nan nan nan nan nan nan nan nan nan nan nan nan nan nan
25 24 23 22 21 20 20 22 21 21 22 23 23 22 22 24 25 31 32 30 29 25 25 32 nan nan nan nan nan nan nan nan nan nan nan nan nan nan nan nan nan nan nan nan nan nan nan nan nan nan nan nan nan nan nan nan nan nan nan nan nan nan nan nan nan nan nan nan nan nan nan nan nan nan nan nan nan nan nan nan nan nan nan nan nan
28 28 26 25 22 21 21 21 22 23 24 24 23 23 24 25 27 33 37 36 29 26 25 nan nan nan nan nan nan nan nan nan nan nan nan nan nan nan nan nan nan nan nan nan nan nan nan nan nan nan nan nan nan nan nan nan nan nan nan nan nan nan nan nan nan nan nan nan nan nan nan nan nan nan nan nan nan nan nan nan nan nan nan nan nan
28 28 26 25 25 23 23 23 25 25 24 23 24 26 29 31 33 32 31 29 26 26 28 nan nan nan nan nan nan nan nan nan nan nan nan nan nan nan nan nan nan nan nan nan nan nan nan nan nan nan nan nan nan nan nan nan nan nan nan nan nan nan nan nan nan nan nan nan nan nan nan nan nan nan nan nan nan nan nan nan nan nan nan nan nan
26 27 26 26 27 26 24 23 24 25 24 24 24 26 28 28 30 31 28 25 26 28 27 26 nan nan nan nan nan nan nan nan nan nan nan nan nan nan nan nan nan nan nan nan nan nan nan nan nan nan nan nan nan nan nan nan nan nan nan nan nan nan nan nan nan nan nan nan nan nan nan nan nan nan nan nan nan nan nan nan nan nan nan nan nan
28 28 28 27 25 24 23 22 22 23 24 25 25 24 24 24 24 27 27 26 22 24 29 26 nan nan nan nan nan nan nan nan nan nan nan nan nan nan nan nan nan nan nan nan nan nan nan nan nan nan nan nan nan nan nan nan nan nan nan nan nan nan nan nan nan nan nan nan nan nan nan nan nan nan nan nan nan nan nan nan nan nan nan nan nan
28 27 27 26 24 22 22 22 22 22 22 24 24 23 23 21 20 23 23 22 22 22 22 23 nan nan nan nan nan nan nan nan nan nan nan nan nan 21 21 21 17 nan nan nan nan nan nan nan nan nan nan nan nan nan nan nan nan nan nan nan nan nan nan nan nan nan nan nan nan nan nan nan nan nan nan nan nan nan nan nan nan nan nan nan nan
24 23 23 23 23 22 23 24 26 25 24 24 26 24 24 23 21 22 21 20 22 25 27 25 15 15 nan nan nan nan nan nan nan nan nan nan nan 21 21 23 22 18 17 nan nan nan nan nan nan nan nan nan nan nan nan nan nan nan nan nan nan nan nan nan nan nan nan nan nan nan nan nan nan nan nan nan nan nan nan nan nan nan nan nan nan
22 22 22 23 24 24 24 25 26 25 25 25 26 27 27 26 26 26 27 26 27 28 28 23 18 14 nan nan nan nan nan nan nan nan nan 17 19 20 21 22 24 22 21 20 20 nan nan nan nan nan nan nan nan nan nan nan nan nan nan nan nan nan nan nan nan nan nan nan nan nan nan nan nan nan nan nan nan nan nan nan nan nan nan nan nan
23 23 24 25 26 26 26 26 26 28 27 26 25 27 29 29 29 29 30 29 28 27 24 20 17 20 nan nan nan nan nan nan nan nan nan nan 20 21 21 22 23 24 25 25 24 23 23 23 23 22 nan nan nan nan nan nan nan nan nan nan nan nan nan nan nan nan nan nan nan nan nan nan nan nan nan nan nan nan nan nan nan nan nan nan nan
25 26 27 28 27 28 29 31 31 31 30 29 28 29 29 31 31 31 33 32 31 28 25 22 21 23 30 nan nan 23 nan nan nan nan nan nan nan 24 24 24 23 23 23 nan nan 27 26 nan nan 26 24 21 nan nan nan nan nan nan nan nan nan nan nan nan nan nan nan nan nan nan nan nan nan nan nan nan nan nan nan nan nan nan nan nan nan
28 29 29 29 28 29 32 33 34 33 32 32 31 31 32 32 33 33 34 34 35 33 29 25 27 29 33 37 nan nan 19 21 nan nan nan nan nan nan 26 28 26 25 25 24 26 nan nan nan nan nan 27 nan nan nan nan nan nan nan nan nan nan nan nan nan nan nan nan nan nan nan nan nan nan nan nan nan nan nan nan nan nan nan nan nan nan
29 29 29 29 30 33 33 34 34 34 33 33 35 35 35 35 34 35 34 34 33 32 31 33 31 32 33 38 nan 26 23 23 18 nan 21 21 23 25 27 29 28 27 27 28 28 28 29 30 30 29 27 26 25 22 nan nan nan nan nan nan nan nan nan nan nan nan nan nan nan nan nan nan nan nan nan nan nan nan nan nan nan nan nan nan nan
29 nan nan nan nan nan 34 35 35 36 37 36 36 37 38 38 39 38 39 38 37 35 34 nan 34 34 34 33 31 nan 30 32 30 21 21 20 20 24 27 27 27 27 27 28 29 28 27 28 31 32 29 27 26 24 23 23 24 25 25 nan nan nan nan nan nan nan nan nan nan nan nan nan nan nan nan nan nan nan nan nan nan nan nan nan nan
nan nan nan nan nan nan nan nan nan nan 37 38 39 39 40 41 42 42 42 43 41 41 40 39 36 36 34 34 31 34 37 nan nan nan nan 25 25 28 31 31 30 30 29 31 30 29 29 30 31 33 31 28 27 26 25 25 26 27 27 28 29 nan nan nan nan nan nan nan nan nan nan nan nan nan nan nan nan nan nan nan nan nan nan nan nan
nan nan nan nan nan nan nan nan nan nan nan 38 38 40 41 42 43 41 43 44 43 44 43 42 41 40 38 38 38 39 40 40 40 37 33 33 nan 35 32 32 33 32 31 31 32 nan 31 33 31 29 30 31 30 28 27 27 27 29 30 30 31 31 nan nan nan nan nan nan nan nan nan nan nan nan nan nan nan nan nan nan nan nan nan nan nan
nan nan nan nan nan nan nan nan nan nan nan nan nan nan nan nan 43 43 43 44 43 45 44 44 43 43 41 41 41 42 42 42 42 41 40 40 40 38 37 36 36 35 35 33 34 34 nan nan nan nan nan nan nan nan nan nan 31 31 32 32 32 33 34 34 nan nan nan nan nan nan nan nan nan nan nan nan nan nan nan nan nan nan nan nan nan
nan nan nan nan nan nan nan nan nan nan nan nan nan nan nan nan nan nan nan 42 45 45 45 44 44 43 43 42 43 43 43 42 42 42 42 43 42 41 41 39 38 39 39 39 38 38 37 36 35 34 34 34 nan 32 31 nan nan 34 33 33 33 34 36 37 36 nan nan nan 34 nan nan nan nan nan nan nan nan nan nan nan nan nan nan nan nan
nan nan nan nan nan nan nan nan nan nan nan nan nan nan nan nan nan nan nan nan nan nan nan nan nan nan 42 43 43 42 42 41 40 41 nan 42 43 44 43 42 40 40 40 41 42 40 40 40 40 39 37 36 35 34 31 33 33 nan 35 35 36 35 36 38 39 38 36 35 35 36 36 nan nan nan nan nan nan nan nan nan nan nan nan nan nan
nan nan nan nan nan nan nan nan nan nan nan nan nan nan nan nan nan nan nan nan nan nan nan nan nan nan nan nan nan nan nan nan nan nan nan nan nan nan nan 43 42 40 39 41 40 39 40 41 42 41 40 39 37 34 32 31 33 35 36 37 38 37 35 35 37 37 37 37 36 36 36 37 37 nan nan nan nan nan nan nan nan nan nan nan nan
nan nan nan nan nan nan nan nan nan nan nan nan nan nan nan nan nan nan nan nan nan nan nan nan nan nan nan nan nan nan nan nan nan nan nan nan nan nan nan nan 40 38 40 40 37 38 37 39 41 41 39 39 38 35 34 33 33 37 38 39 41 41 39 37 37 37 38 39 41 42 42 41 nan nan nan nan nan nan nan nan nan nan nan nan nan
nan nan nan nan nan nan nan nan nan nan nan nan nan nan nan nan nan nan nan nan nan nan nan nan nan nan nan nan nan nan nan nan nan nan nan nan nan nan nan nan nan nan nan nan 39 39 38 39 39 39 38 39 38 36 37 37 36 37 40 43 42 44 44 43 nan nan nan 44 47 49 49 nan nan nan nan nan nan nan nan nan nan nan nan nan nan
nan nan nan nan nan nan nan nan nan nan nan nan nan nan nan nan nan nan nan nan nan nan nan nan nan nan nan nan nan nan nan nan nan nan nan nan nan nan nan nan nan nan nan nan nan nan 40 40 40 39 39 37 41 43 42 42 41 40 40 44 44 46 48 49 50 51 nan nan nan nan nan nan nan nan nan nan nan nan nan nan nan nan nan nan nan
nan nan nan nan nan nan nan nan nan nan nan nan nan nan nan nan nan nan nan nan nan nan nan nan nan nan nan nan nan nan nan nan nan nan nan nan nan nan nan nan nan nan nan nan nan nan nan nan 42 43 41 42 42 39 42 43 43 44 46 47 nan nan 52 53 55 nan nan nan nan nan nan nan nan nan nan nan nan nan nan nan nan nan nan nan nan
nan nan nan nan nan nan nan nan nan nan nan nan nan nan nan nan nan nan nan nan nan nan nan nan nan nan nan nan nan nan nan nan nan nan nan nan nan nan nan nan nan nan nan nan nan nan nan nan 45 44 46 45 43 43 44 46 48 52 52 nan nan nan nan nan nan nan nan nan nan nan nan nan nan nan nan nan nan nan nan nan nan nan nan nan nan
nan nan nan nan nan nan nan nan nan nan nan nan nan nan nan nan nan nan nan nan nan nan nan nan nan nan nan nan nan nan nan nan nan nan nan nan nan nan nan nan nan nan nan nan nan nan nan nan nan 46 47 47 44 44 47 49 51 51 51 nan nan nan nan nan nan nan nan nan nan nan nan nan nan nan nan nan nan nan nan nan nan nan nan nan nan
nan nan nan nan nan nan nan nan nan nan nan nan nan nan nan nan nan nan nan nan nan nan nan nan nan nan nan nan nan nan nan nan nan nan nan nan nan nan nan nan nan nan nan nan nan nan nan nan nan 49 47 50 48 46 47 51 53 54 52 50 51 nan nan nan nan nan nan nan nan nan nan nan nan nan nan nan nan nan nan nan nan nan nan nan nan
nan nan nan nan nan nan nan nan nan nan nan nan nan nan nan nan nan nan nan nan nan nan nan nan nan nan nan nan nan nan nan nan nan nan nan nan nan nan nan nan nan nan nan nan nan nan nan nan nan nan 51 49 50 49 48 53 55 nan nan 53 52 nan nan nan nan nan nan nan nan nan nan nan nan nan nan nan nan nan nan nan nan nan nan nan nan
nan nan nan nan nan nan nan nan nan nan nan nan nan nan nan nan nan nan nan nan nan nan nan nan nan nan nan nan nan nan nan nan nan nan nan nan nan nan nan nan nan nan nan nan nan nan nan nan nan nan nan 51 50 50 50 54 57 nan nan nan nan 54 nan nan nan nan nan nan nan nan nan nan nan nan nan nan nan nan nan nan nan nan nan nan nan
nan nan nan nan nan nan nan nan nan nan nan nan nan nan nan nan nan nan nan nan nan nan nan nan nan nan nan nan nan nan nan nan nan nan nan nan nan nan nan nan nan nan nan nan nan nan nan nan nan nan nan 51 51 51 51 54 57 58 58 59 nan nan nan nan nan nan nan nan nan nan nan nan nan nan nan nan nan nan nan nan nan nan nan nan nan
nan nan nan nan nan nan nan nan nan nan nan nan nan nan nan nan nan nan nan nan nan nan nan nan nan nan nan nan nan nan nan nan nan nan nan nan nan nan nan nan nan nan nan nan nan nan nan nan nan nan nan nan nan 50 53 nan nan nan nan nan nan nan nan nan nan nan nan nan nan nan nan nan nan nan nan nan nan nan nan nan nan nan nan nan nan
nan nan nan nan nan nan nan nan nan nan nan nan nan nan nan nan nan nan nan nan nan nan nan nan nan nan nan nan nan nan nan nan nan nan nan nan nan nan nan nan nan nan nan nan nan nan nan nan nan nan nan nan nan nan nan nan nan nan nan nan nan nan nan nan nan nan nan nan nan nan nan nan nan nan nan nan nan nan nan nan nan nan nan nan nan
nan nan nan nan nan nan nan nan nan nan nan nan nan nan nan nan nan nan nan nan nan nan nan nan nan nan nan nan nan nan nan nan nan nan nan nan nan nan nan nan nan nan nan nan nan nan nan nan nan nan nan nan nan nan nan nan nan nan nan nan nan nan nan nan nan nan nan nan nan nan nan nan nan nan nan nan nan nan nan nan nan nan nan nan nan
nan nan nan nan nan nan nan nan nan nan nan nan nan nan nan nan nan nan nan nan nan nan nan nan nan nan nan nan nan nan nan nan nan nan nan nan nan nan nan nan nan nan nan nan nan nan nan nan nan nan nan nan nan nan nan nan nan nan nan nan nan nan nan nan nan nan nan nan nan nan nan nan nan nan nan nan nan nan nan nan nan nan nan nan nan
nan nan nan nan nan nan nan nan nan nan nan nan nan nan nan nan nan nan nan nan nan nan nan nan nan nan nan nan nan nan nan nan nan nan nan nan nan nan nan nan nan nan nan nan nan nan nan nan nan nan nan nan nan nan nan nan nan nan nan nan nan nan nan nan nan nan nan nan nan nan nan nan nan nan nan nan nan nan nan nan nan nan nan nan nan
nan nan nan nan nan nan nan nan nan nan nan nan nan nan nan nan nan nan nan nan nan nan nan nan nan nan nan nan nan nan nan nan nan nan nan nan nan nan nan nan nan nan nan nan nan nan nan nan nan nan nan nan nan nan nan nan nan nan nan nan nan nan nan nan nan nan nan nan nan nan nan nan nan nan nan nan nan nan nan nan nan nan nan nan nan
nan nan nan nan nan nan nan nan nan nan nan nan nan nan nan nan nan nan nan nan nan nan nan nan nan nan nan nan nan nan nan nan nan nan nan nan nan nan nan 46 45 45 nan nan nan nan nan nan nan nan nan nan nan nan nan nan nan nan nan nan nan nan nan nan nan nan nan nan nan nan nan nan nan nan nan nan nan nan nan nan nan nan nan nan nan
nan nan nan nan nan nan nan nan nan nan nan nan nan nan nan nan nan nan nan nan nan nan nan nan nan nan nan nan nan nan nan nan nan nan nan nan nan 57 52 47 nan nan nan nan nan nan nan nan nan nan nan nan nan nan nan nan nan nan nan nan nan nan nan nan nan nan nan nan nan nan nan nan nan nan nan nan nan nan nan nan nan nan nan nan nan
nan nan nan nan nan nan nan nan nan nan nan nan nan nan nan nan nan nan nan nan nan nan nan nan nan nan nan nan nan nan nan nan nan nan nan nan nan nan 55 55 49 43 42 42 40 43 nan nan nan nan nan nan nan nan nan nan nan nan nan nan nan nan nan nan nan nan nan nan nan nan nan nan nan nan nan nan nan nan nan nan nan nan nan nan nan
Wind_Direction
289 278 270 278 288 294 292 298 295 287 287 289 289 293 300 304 301 298 295 293 294 296 291 290 nan 284 281 284 289 293 295 294 291 294 290 288 288 287 286 286 288 289 293 283 273 275 266 255 247 246 249 254 258 265 268 260 257 259 258 257 259 252 246 244 246 256 254 249 246 248 249 256 253 255 257 252 248 250 243 245 248 254 259 259 253
279 274 279 280 280 285 279 282 281 286 288 290 292 295 296 297 295 292 289 nan nan nan nan nan nan 296 295 297 297 299 nan nan nan nan nan nan 281 285 290 287 283 277 274 277 276 273 268 260 254 254 255 258 258 258 261 261 261 260 261 253 252 255 248 247 245 251 245 253 249 245 247 248 252 250 253 251 249 253 254 252 251 259 262 257 253
288 286 287 282 285 281 278 276 275 282 286 289 290 291 291 289 287 287 290 nan nan nan nan nan nan nan nan 299 300 nan nan nan nan nan nan nan nan nan nan 268 269 267 267 264 263 261 263 262 260 257 254 255 255 256 253 253 253 254 253 258 251 245 247 247 247 250 254 254 256 254 252 nan 242 245 251 249 248 253 258 262 263 262 264 265 261
308 306 304 288 287 280 275 276 274 275 279 281 285 288 288 287 286 289 293 291 nan 284 nan nan nan nan nan nan nan nan nan nan nan nan nan nan nan nan nan nan nan nan nan nan nan 267 263 258 255 254 255 251 251 250 248 250 248 249 249 252 255 251 248 245 243 247 254 254 254 257 256 256 nan nan 253 253 249 250 256 261 264 269 268 266 261
304 298 296 289 287 280 280 274 274 279 281 282 282 284 283 289 290 294 293 288 285 282 nan nan nan nan nan nan nan nan nan nan nan nan nan nan nan nan nan nan nan nan nan nan nan nan 259 260 256 252 250 250 252 253 251 252 254 256 257 259 263 260 260 253 246 250 255 253 261 255 253 nan 260 260 256 256 245 249 248 256 262 269 271 267 263
315 312 316 305 293 284 282 283 283 281 281 279 279 280 281 285 289 289 283 282 284 285 287 nan nan nan nan nan nan nan nan nan nan nan nan nan nan nan nan nan nan nan nan nan nan nan nan 257 256 253 253 254 256 255 255 256 255 256 258 262 260 259 267 265 260 257 259 251 250 251 nan nan 255 258 260 256 246 255 252 256 258 260 265 274 270
304 305 306 303 307 304 300 297 292 287 280 275 276 279 282 286 290 288 289 288 287 286 nan nan nan nan nan nan nan nan nan nan nan nan nan nan nan nan nan nan nan nan nan nan nan nan nan nan nan nan nan 255 253 252 250 251 251 254 258 260 263 263 265 266 271 263 260 256 251 242 242 246 251 252 253 253 251 245 252 252 240 242 246 246 249
311 307 308 318 324 324 323 313 302 298 289 283 283 282 288 292 294 292 292 295 294 289 283 nan nan nan nan nan nan nan nan nan nan nan nan nan nan nan nan nan nan nan nan nan nan nan nan nan nan nan nan nan nan nan nan nan 250 248 252 256 257 257 262 269 266 268 264 259 256 246 238 238 243 245 248 nan nan nan 247 241 246 237 240 249 255
307 314 325 332 329 324 314 321 310 297 296 294 292 291 294 298 300 296 296 300 301 297 287 nan nan nan nan nan nan nan nan nan nan nan nan nan nan nan nan nan nan nan nan nan nan nan nan nan nan nan nan nan nan nan nan nan nan 252 249 nan nan nan 256 262 266 264 262 261 262 256 247 244 241 240 nan nan nan nan nan 246 nan nan 247 244 243
317 325 321 321 318 315 320 306 302 306 298 294 290 293 298 300 303 301 300 302 304 303 296 nan nan nan nan nan nan nan nan nan nan nan nan nan nan nan nan nan nan nan nan nan nan nan nan nan nan nan nan nan nan nan nan nan nan nan nan nan nan nan nan 258 nan 258 256 254 256 263 254 249 245 nan nan nan nan nan nan nan nan nan nan nan nan
319 323 316 313 304 301 292 305 306 294 290 293 296 299 300 303 305 303 301 298 299 304 303 293 nan nan nan nan nan nan nan nan nan nan nan nan nan nan nan nan nan nan nan nan nan nan nan nan nan nan nan nan nan nan nan nan nan nan nan nan nan nan nan nan nan nan nan nan nan 254 256 255 nan nan nan nan nan nan nan nan nan nan nan nan nan
300 289 277 268 264 267 275 290 299 302 295 294 293 295 299 302 302 301 297 299 298 298 297 294 nan nan nan nan nan nan nan nan nan nan nan nan nan nan nan nan nan nan nan nan nan nan nan nan nan nan nan nan nan nan nan nan nan nan nan nan nan nan nan nan nan nan nan nan nan nan nan nan nan nan nan nan nan nan nan nan nan nan nan nan nan
282 282 286 286 288 289 291 295 296 300 303 299 299 297 297 298 300 301 299 293 294 289 287 288 nan nan nan nan nan nan nan nan nan nan nan nan nan nan nan nan nan nan nan nan nan nan nan nan nan nan nan nan nan nan nan nan nan nan nan nan nan nan nan nan nan nan nan nan nan nan nan nan nan nan nan nan nan nan nan nan nan nan nan nan nan
277 280 284 287 292 292 298 304 307 304 298 298 298 296 294 294 294 295 285 278 273 268 270 276 nan nan nan nan nan nan nan nan nan nan nan nan nan nan nan nan nan nan nan nan nan nan nan nan nan nan nan nan nan nan nan nan nan nan nan nan nan nan nan nan nan nan nan nan nan nan nan nan nan nan nan nan nan nan nan nan nan nan nan nan nan
273 275 277 279 285 300 304 305 303 298 295 295 292 291 285 279 276 267 259 258 261 264 269 nan nan nan nan nan nan nan nan nan nan nan nan nan nan nan nan nan nan nan nan nan nan nan nan nan nan nan nan nan nan nan nan nan nan nan nan nan nan nan nan nan nan nan nan nan nan nan nan nan nan nan nan nan nan nan nan nan nan nan nan nan nan
269 271 269 270 276 278 293 299 296 293 292 289 288 283 280 280 276 267 262 274 294 301 297 nan nan nan nan nan nan nan nan nan nan nan nan nan nan nan nan nan nan nan nan nan nan nan nan nan nan nan nan nan nan nan nan nan nan nan nan nan nan nan nan nan nan nan nan nan nan nan nan nan nan nan nan nan nan nan nan nan nan nan nan nan nan
261 265 266 267 267 269 275 289 289 289 292 294 292 292 293 294 298 298 293 292 301 302 295 297 nan nan nan nan nan nan nan nan nan nan nan nan nan nan nan nan nan nan nan nan nan nan nan nan nan nan nan nan nan nan nan nan nan nan nan nan nan nan nan nan nan nan nan nan nan nan nan nan nan nan nan nan nan nan nan nan nan nan nan nan nan
269 267 267 265 265 262 263 268 281 291 292 293 296 296 297 297 301 295 294 299 297 297 300 298 nan nan nan nan nan nan nan nan nan nan nan nan nan nan nan nan nan nan nan nan nan nan nan nan nan nan nan nan nan nan nan nan nan nan nan nan nan nan nan nan nan nan nan nan nan nan nan nan nan nan nan nan nan nan nan nan nan nan nan nan nan
256 257 257 257 256 257 261 265 269 278 288 296 299 299 297 299 300 296 298 300 300 289 275 270 nan nan nan nan nan nan nan nan nan nan nan nan nan 287 293 298 295 nan nan nan nan nan nan nan nan nan nan nan nan nan nan nan nan nan nan nan nan nan nan nan nan nan nan nan nan nan nan nan nan nan nan nan nan nan nan nan nan nan nan nan nan
254 255 257 257 256 256 260 265 270 276 281 287 294 290 294 296 295 290 289 294 291 280 278 284 266 270 nan nan nan nan nan nan nan nan nan nan nan 292 296 294 302 298 298 nan nan nan nan nan nan nan nan nan nan nan nan nan nan nan nan nan nan nan nan nan nan nan nan nan nan nan nan nan nan nan nan nan nan nan nan nan nan nan nan nan nan
255 259 260 262 261 260 263 269 273 273 275 279 288 298 299 296 299 303 305 301 301 300 301 313 315 309 nan nan nan nan nan nan nan nan nan 293 287 289 295 301 295 298 295 294 293 nan nan nan nan nan nan nan nan nan nan nan nan nan nan nan nan nan nan nan nan nan nan nan nan nan nan nan nan nan nan nan nan nan nan nan nan nan nan nan nan
258 265 267 269 267 264 269 274 276 275 275 276 280 288 297 301 303 302 297 299 301 303 301 287 275 277 nan nan nan nan nan nan nan nan nan nan 283 283 283 284 297 298 298 298 296 296 296 295 294 292 nan nan nan nan nan nan nan nan nan nan nan nan nan nan nan nan nan nan nan nan nan nan nan nan nan nan nan nan nan nan nan nan nan nan nan
267 271 273 272 267 266 274 280 279 280 280 279 280 283 287 292 296 297 300 297 294 290 289 289 280 272 274 nan nan 277 nan nan nan nan nan nan nan 282 281 286 286 286 287 nan nan 297 298 nan nan 296 292 288 nan nan nan nan nan nan nan nan nan nan nan nan nan nan nan nan nan nan nan nan nan nan nan nan nan nan nan nan nan nan nan nan nan
269 271 274 273 268 268 275 278 279 279 279 279 280 281 281 284 289 291 292 292 294 295 289 284 278 278 278 276 nan nan 248 256 nan nan nan nan nan nan 275 280 279 276 281 280 284 nan nan nan nan nan 292 nan nan nan nan nan nan nan nan nan nan nan nan nan nan nan nan nan nan nan nan nan nan nan nan nan nan nan nan nan nan nan nan nan nan
274 276 276 272 270 273 277 280 281 281 280 280 280 281 282 283 286 289 288 288 286 282 282 284 285 288 289 290 nan 293 279 271 271 nan 287 266 266 272 275 280 280 281 283 282 278 280 284 287 290 289 288 288 291 293 nan nan nan nan nan nan nan nan nan nan nan nan nan nan nan nan nan nan nan nan nan nan nan nan nan nan nan nan nan nan nan
278 nan nan nan nan nan 276 278 279 280 281 280 280 281 282 283 286 288 289 287 286 286 290 nan 295 296 295 289 289 nan 281 276 276 264 256 252 261 265 271 276 278 282 284 282 278 273 276 284 287 285 281 283 285 285 289 292 289 285 284 nan nan nan nan nan nan nan nan nan nan nan nan nan nan nan nan nan nan nan nan nan nan nan nan nan nan
nan nan nan nan nan nan nan nan nan nan 280 279 279 279 280 283 285 286 288 291 294 295 296 294 296 293 289 289 290 291 291 nan nan nan nan 277 274 277 275 277 279 285 289 285 281 276 268 278 286 283 273 270 272 275 280 283 283 283 284 282 280 nan nan nan nan nan nan nan nan nan nan nan nan nan nan nan nan nan nan nan nan nan nan nan nan
nan nan nan nan nan nan nan nan nan nan nan 276 276 277 279 280 281 282 286 288 289 290 290 290 288 287 287 289 290 290 290 289 285 283 281 282 nan 279 277 277 280 281 282 284 286 nan 282 283 289 285 276 272 273 275 273 274 278 284 285 282 279 279 nan nan nan nan nan nan nan nan nan nan nan nan nan nan nan nan nan nan nan nan nan nan nan
nan nan nan nan nan nan nan nan nan nan nan nan nan nan nan nan 274 277 279 282 283 284 284 285 284 284 282 283 285 286 286 287 288 288 285 283 285 285 284 283 284 286 286 285 282 282 nan nan nan nan nan nan nan nan nan nan 277 283 285 281 278 278 277 276 nan nan nan nan nan nan nan nan nan nan nan nan nan nan nan nan nan nan nan nan nan
nan nan nan nan nan nan nan nan nan nan nan nan nan nan nan nan nan nan nan 279 279 280 281 282 283 283 283 283 282 281 282 281 281 282 283 283 284 284 284 284 284 285 285 285 285 284 284 284 282 279 278 277 nan 276 278 nan nan 283 281 278 276 276 275 274 274 nan nan nan 271 nan nan nan nan nan nan nan nan nan nan nan nan nan nan nan nan
nan nan nan nan nan nan nan nan nan nan nan nan nan nan nan nan nan nan nan nan nan nan nan nan nan nan 279 277 277 278 277 279 280 278 nan 277 277 277 279 280 281 282 283 282 282 282 283 283 282 282 281 281 280 279 285 287 288 nan 280 276 275 274 271 269 268 269 270 272 270 270 269 nan nan nan nan nan nan nan nan nan nan nan nan nan nan
nan nan nan nan nan nan nan nan nan nan nan nan nan nan nan nan nan nan nan nan nan nan nan nan nan nan nan nan nan nan nan nan nan nan nan nan nan nan nan 277 277 278 278 277 278 278 277 278 279 280 281 281 281 281 283 282 283 282 279 275 274 276 273 269 267 269 269 269 269 268 268 267 269 nan nan nan nan nan nan nan nan nan nan nan nan
nan nan nan nan nan nan nan nan nan nan nan nan nan nan nan nan nan nan nan nan nan nan nan nan nan nan nan nan nan nan nan nan nan nan nan nan nan nan nan nan 278 278 276 279 278 276 275 274 275 276 276 277 276 277 277 275 274 275 278 275 271 272 271 270 270 272 271 266 264 266 267 266 nan nan nan nan nan nan nan nan nan nan nan nan nan
nan nan nan nan nan nan nan nan nan nan nan nan nan nan nan nan nan nan nan nan nan nan nan nan nan nan nan nan nan nan nan nan nan nan nan nan nan nan nan nan nan nan nan nan 274 276 275 275 275 276 276 273 273 268 271 272 270 267 270 273 269 269 270 271 nan nan nan 269 269 270 271 nan nan nan nan nan nan nan nan nan nan nan nan nan nan
nan nan nan nan nan nan nan nan nan nan nan nan nan nan nan nan nan nan nan nan nan nan nan nan nan nan nan nan nan nan nan nan nan nan nan nan nan nan nan nan nan nan nan nan nan nan 277 277 277 276 274 272 267 261 267 270 271 273 274 273 268 268 269 269 268 268 nan nan nan nan nan nan nan nan nan nan nan nan nan nan nan nan nan nan nan
nan nan nan nan nan nan nan nan nan nan nan nan nan nan nan nan nan nan nan nan nan nan nan nan nan nan nan nan nan nan nan nan nan nan nan nan nan nan nan nan nan nan nan nan nan nan nan nan 276 276 276 272 268 264 272 274 274 272 272 268 nan nan 268 268 269 nan nan nan nan nan nan nan nan nan nan nan nan nan nan nan nan nan nan nan nan
nan nan nan nan nan nan nan nan nan nan nan nan nan nan nan nan nan nan nan nan nan nan nan nan nan nan nan nan nan nan nan nan nan nan nan nan nan nan nan nan nan nan nan nan nan nan nan nan 276 276 276 273 270 267 270 273 273 274 269 nan nan nan nan nan nan nan nan nan nan nan nan nan nan nan nan nan nan nan nan nan nan nan nan nan nan
nan nan nan nan nan nan nan nan nan nan nan nan nan nan nan nan nan nan nan nan nan nan nan nan nan nan nan nan nan nan nan nan nan nan nan nan nan nan nan nan nan nan nan nan nan nan nan nan nan 277 279 278 274 272 276 277 279 278 275 nan nan nan nan nan nan nan nan nan nan nan nan nan nan nan nan nan nan nan nan nan nan nan nan nan nan
nan nan nan nan nan nan nan nan nan nan nan nan nan nan nan nan nan nan nan nan nan nan nan nan nan nan nan nan nan nan nan nan nan nan nan nan nan nan nan nan nan nan nan nan nan nan nan nan nan 269 273 275 275 275 277 279 279 279 276 274 274 nan nan nan nan nan nan nan nan nan nan nan nan nan nan nan nan nan nan nan nan nan nan nan nan
nan nan nan nan nan nan nan nan nan nan nan nan nan nan nan nan nan nan nan nan nan nan nan nan nan nan nan nan nan nan nan nan nan nan nan nan nan nan nan nan nan nan nan nan nan nan nan nan nan nan 266 267 271 272 272 276 276 nan nan 273 274 nan nan nan nan nan nan nan nan nan nan nan nan nan nan nan nan nan nan nan nan nan nan nan nan
nan nan nan nan nan nan nan nan nan nan nan nan nan nan nan nan nan nan nan nan nan nan nan nan nan nan nan nan nan nan nan nan nan nan nan nan nan nan nan nan nan nan nan nan nan nan nan nan nan nan nan 266 267 269 269 272 273 nan nan nan nan 272 nan nan nan nan nan nan nan nan nan nan nan nan nan nan nan nan nan nan nan nan nan nan nan
nan nan nan nan nan nan nan nan nan nan nan nan nan nan nan nan nan nan nan nan nan nan nan nan nan nan nan nan nan nan nan nan nan nan nan nan nan nan nan nan nan nan nan nan nan nan nan nan nan nan nan 266 266 267 271 271 273 273 274 275 nan nan nan nan nan nan nan nan nan nan nan nan nan nan nan nan nan nan nan nan nan nan nan nan nan
nan nan nan nan nan nan nan nan nan nan nan nan nan nan nan nan nan nan nan nan nan nan nan nan nan nan nan nan nan nan nan nan nan nan nan nan nan nan nan nan nan nan nan nan nan nan nan nan nan nan nan nan nan 267 269 nan nan nan nan nan nan nan nan nan nan nan nan nan nan nan nan nan nan nan nan nan nan nan nan nan nan nan nan nan nan
nan nan nan nan nan nan nan nan nan nan nan nan nan nan nan nan nan nan nan nan nan nan nan nan nan nan nan nan nan nan nan nan nan nan nan nan nan nan nan nan nan nan nan nan nan nan nan nan nan nan nan nan nan nan nan nan nan nan nan nan nan nan nan nan nan nan nan nan nan nan nan nan nan nan nan nan nan nan nan nan nan nan nan nan nan
nan nan nan nan nan nan nan nan nan nan nan nan nan nan nan nan nan nan nan nan nan nan nan nan nan nan nan nan nan nan nan nan nan nan nan nan nan nan nan nan nan nan nan nan nan nan nan nan nan nan nan nan nan nan nan nan nan nan nan nan nan nan nan nan nan nan nan nan nan nan nan nan nan nan nan nan nan nan nan nan nan nan nan nan nan
nan nan nan nan nan nan nan nan nan nan nan nan nan nan nan nan nan nan nan nan nan nan nan nan nan nan nan nan nan nan nan nan nan nan nan nan nan nan nan nan nan nan nan nan nan nan nan nan nan nan nan nan nan nan nan nan nan nan nan nan nan nan nan nan nan nan nan nan nan nan nan nan nan nan nan nan nan nan nan nan nan nan nan nan nan
nan nan nan nan nan nan nan nan nan nan nan nan nan nan nan nan nan nan nan nan nan nan nan nan nan nan nan nan nan nan nan nan nan nan nan nan nan nan nan nan nan nan nan nan nan nan nan nan nan nan nan nan nan nan nan nan nan nan nan nan nan nan nan nan nan nan nan nan nan nan nan nan nan nan nan nan nan nan nan nan nan nan nan nan nan
nan nan nan nan nan nan nan nan nan nan nan nan nan nan nan nan nan nan nan nan nan nan nan nan nan nan nan nan nan nan nan nan nan nan nan nan nan nan nan nan nan nan nan nan nan nan nan nan nan nan nan nan nan nan nan nan nan nan nan nan nan nan nan nan nan nan nan nan nan nan nan nan nan nan nan nan nan nan nan nan nan nan nan nan nan
nan nan nan nan nan nan nan nan nan nan nan nan nan nan nan nan nan nan nan nan nan nan nan nan nan nan nan nan nan nan nan nan nan nan nan nan nan nan nan 268 268 271 nan nan nan nan nan nan nan nan nan nan nan nan nan nan nan nan nan nan nan nan nan nan nan nan nan nan nan nan nan nan nan nan nan nan nan nan nan nan nan nan nan nan nan
nan nan nan nan nan nan nan nan nan nan nan nan nan nan nan nan nan nan nan nan nan nan nan nan nan nan nan nan nan nan nan nan nan nan nan nan nan 257 258 262 nan nan nan nan nan nan nan nan nan nan nan nan nan nan nan nan nan nan nan nan nan nan nan nan nan nan nan nan nan nan nan nan nan nan nan nan nan nan nan nan nan nan nan nan nan
nan nan nan nan nan nan nan nan nan nan nan nan nan nan nan nan nan nan nan nan nan nan nan nan nan nan nan nan nan nan nan nan nan nan nan nan nan nan 248 248 251 256 269 272 271 272 nan nan nan nan nan nan nan nan nan nan nan nan nan nan nan nan nan nan nan nan nan nan nan nan nan nan nan nan nan nan nan nan nan nan nan nan nan nan nan